Location: Mohawk View
(42.7837°N, 73.7885°W)
Time: 07:39:32
(UTC+00:00)

Cosmos 2360 Rocket - Pass Details

Date: 17 June 2021
Orbit: 835 x 843 km, 71.0° (Epoch: 27 July)

Event Time Altitude Azimuth Distance (km) Brightness Sun altitude
Rises 02:45:18 0° 213° (SSW) 3,382 5.1 -17.3°
Reaches altitude 10° 02:47:46 10° 217° (SW) 2,450 4.4 -17.5°
Maximum altitude 02:53:20 62° 297° (WNW) 945 2.7 -18.0°
Drops below altitude 10° 02:58:56 10° 18° (NNE) 2,460 5.2 -18.5°
Sets 03:01:25 0° 22° (NNE) 3,397 5.9 -18.8°
